COSMOS 2514 (751)

Last updated on Oct. 25, 2020, 5:57 a.m. UTC

1 41330U 16008A   20298.35006669 -.00000094  00000-0  00000+0 0  9995
2 41330  65.5305  23.0270 0011606 208.6520 149.4093  2.13102968 36672
UTC
Height (km)
Latitude
Longitude
Inclination
Orbital Period
UTC large
Height (km)
Speed (km/s)
/
Latitude / Longitude
Inclination (degrees)
Orbital Period (minutes)
Azimuth
Elevation
Range (km)
Doppler Factor
iOS Compass Heading
iOS Angle

Next 30 passes for location: Hong Kong

Rise time Rise Azimuth (degrees) Set time Set Azimuth (degrees) Duration Max altitude (degrees)

No matching passes for this satellites